Regional Weather Roundup
Issued by NWS

Home | Current Version | Previous Version | Text Only | Print | Product List | Glossary Off
Versions: 1 2 3 4 5 6 7 8 9 10 11 12 13 14 15 16 17 18 19 20 21 22 23 24 25 26 27 28 29 30 31 32 33 34 35 36 37 38 39 40 41 42 43 44 45 46 47 48 49 50

653
ASUS45 KTFX 240910
RWRMT
MONTANA REGIONAL WEATHER ROUNDUP
NATIONAL WEATHER SERVICE GREAT FALLS MT
200 AM MST FRI FEB 24 2017

NOTE: "FAIR" INDICATES FEW OR NO CLOUDS BELOW 12000 FEET WITH NO
SIGNIFICANT WEATHER AND/OR OBSTRUCTIONS TO VISIBILITY.

MTZ001>007-043-241000-
WEST OF THE DIVIDE

CITY           SKY/WX    TMP DP  RH WIND       PRES   REMARKS
KALISPELL      CLEAR     14  11  87 CALM      30.00R
MISSOULA       CLOUDY    28  20  71 NW13      29.99R WCI  17
BUTTE          FLURRIES  17  14  88 CALM      29.86R
MULLAN PASS    CLOUDY    13  11  92 NW5       29.87F FOG
ANACONDA         N/A     19  14  79 CALM      29.90R
DEER LODGE       N/A     19  14  79 NW5       29.93R
EUREKA           N/A     12  10  92 CALM      30.03S
HAMILTON         N/A     28  23  80 W3          N/A
LIBBY            N/A     12  10  92 CALM      30.04R
PLAINS           N/A     16   9  74 CALM      30.05R
RONAN            N/A     25  21  84 CALM      30.02R
$$

MTZ008-052>055-241000-
SOUTHWEST MONTANA

CITY           SKY/WX    TMP DP  RH WIND       PRES   REMARKS
BOZEMAN        CLOUDY    23  19  85 N6        29.90S WCI  16
DILLON         CLOUDY    21  15  78 NE12      29.84R WCI   9
W YELLOWSTONE  CLOUDY    14  12  92 CALM      29.79S FOG
ENNIS          CLOUDY    19  16  86 N9        29.88S FOG     WCI   9
THREE FORKS      N/A     23  -9  24 SW3       29.90F
TWIN BRIDGES     N/A     22  13  68 N10       29.86S WCI  11
$$

MTZ009-010-012-014-046-048-049-054-241000-
EAST SLOPES AND CENTRAL MONTANA

CITY           SKY/WX    TMP DP  RH WIND       PRES   REMARKS
CUT BANK       CLOUDY    18  17  96 S6        29.94F WCI  10
GREAT FALLS    CLOUDY    24  21  88 CALM      29.95F
MALMSTROM AFB  MOCLDY    25  23  93 MISG      29.97S
HELENA         CLOUDY    26  23  88 N3        29.93S
AUGUSTA          N/A     17  17  99 W3        29.91F
BOWMANS CRNR   FLURRIES  21  19  95 E3        29.90F
CHOTEAU          N/A     21  19  93 S5        29.96S
CONRAD           N/A     14  12  92 NE2       29.98F
POWER          MOCLDY    22  21  96 CALM      29.94F
RAYNESFORD     CLOUDY    19  14  81 E5        29.95R
ULM            MOCLDY    24  22  95 MISG      29.95F
$$

MTZ011-013-016-021-045-047-050-051-241000-
NORTH CENTRAL MONTANA

CITY           SKY/WX    TMP DP  RH WIND       PRES   REMARKS
HAVRE          CLOUDY    20  18  92 NE3       30.03S
LEWISTOWN      CLOUDY    19  15  84 E3        29.93F
N BAR RANCH    MIX PCPN  21  19  93 SE10      29.96S WCI  10
CHINOOK          N/A     27  25  93 E9        30.05R WCI  17
DENTON           N/A     18  17  93 N12       29.94S WCI   6
FORT BENTON      N/A     25  19  80 MISG      30.01S
GEYSER           N/A     17  14  88 SW7       29.93S WCI   7
GRASS RANGE    FLURRIES  24  23  95 E8        29.94S WCI  16
JUDITH GAP     FLURRIES  20  17  90 S9        29.91S WCI   9
ROY            FLURRIES  25  25  99 MISG      29.97F
STANFORD         N/A     17  13  88 SW7       29.92S WCI   7
WINIFRED         N/A     19  18  95 SE12      29.96S WCI   6
$$

MTZ017>020-022>027-061-062-241000-
NORTHEAST MONTANA

CITY           SKY/WX    TMP DP  RH WIND       PRES   REMARKS
GLASGOW        CLOUDY    24  19  81 SE13      30.09S WCI  12
JORDAN           N/A     24  22  91 E10       30.05S WCI  14
SIDNEY         PTCLDY    21  16  81 E5        30.15S
WOLF POINT     CLOUDY    26  19  74 E6        30.13S WCI  19
PLENTYWOOD       N/A     18  14  86 NE3       30.12S
POPLAR           N/A     23  18  80 E6        30.14S WCI  16
SCOBEY           N/A     20  11  68 CALM      30.08S
$$

MTZ028>42-056>058-241000-
SOUTHCENTRAL AND SOUTHEAST MONTANA

CITY           SKY/WX    TMP DP  RH WIND       PRES   REMARKS
BAKER          CLOUDY    19  11  70 E14       30.07S WCI   6
BILLINGS       LGT SNOW  25  24  96 NE8       29.95F FOG     WCI  16
LIVINGSTON     FLURRIES  21  18  88 E10       29.89F WCI  10
MILES CITY     CLOUDY    28  22  78 E8        30.05S WCI  20
BIG TIMBER     CLOUDY    19  19 100 N5        29.94S FOG
FORSYTH          N/A     27  27 100 E5        30.03S
HARLOWTON      LGT SNOW  21  20  94 E6        29.92F WCI  13
LAUREL           N/A     25  20  81 N5        29.93S
$$

REGIONAL REPORTS...DAKOTAS

CITY           SKY/WX    TMP DP  RH WIND       PRES   REMARKS
WILLISTON      MOCLDY    12   8  84 SW5       30.15F
MINOT          CLOUDY    25  18  74 NW10      30.12F WCI  15
DICKINSON      CLEAR      9   6  88 CALM      30.09S
BEACH            N/A    N/A N/A N/A MISG        N/A
CROSBY         CLOUDY    25  21  86 W3        30.16S
TIOGA          CLOUDY    19  18  93 CALM      30.13S
WATFORD CITY     N/A      9   7  92 CALM      30.15S
BISMARCK       CLEAR     15  11  83 W6        30.16S WCI   6
GRAND FORKS    CLEAR     17   9  70 N8        30.14F WCI   7
FARGO          CLOUDY    20  12  71 N20G28    30.08F WCI   4
BUFFALO SD       N/A     16  12  84 NE12      29.98S WCI   3
RAPID CITY     LGT SNOW  24  21  88 N13       29.99S FOG     WCI  12
$$

REGIONAL REPORTS...WYOMING/IDAHO/WASHINGTON

CITY           SKY/WX    TMP DP  RH WIND       PRES   REMARKS
GILLETTE       LGT SNOW  23  21  92 NE6       29.93R FOG     WCI  16
SHERIDAN       CLOUDY    22  18  85 SE12      29.94F WCI  10
BUFFALO WY     CLOUDY    20  16  84 S5        29.91F
CODY           CLOUDY    15  11  83 CALM      29.88F
YELLOWSTONE LA   N/A      2   0  91 CALM      29.76R
IDAHO FALLS    CLOUDY    22  20  92 S18G28    29.85R FOG     WCI   7
SALMON         CLOUDY    27  18  69 E6        29.88R WCI  20
BOISE          CLOUDY    32  32 100 NW13      30.01R WCI  22
SPOKANE        PTCLDY    22  18  85 S7        30.06S WCI  13
$$

REGIONAL REPORTS...ALBERTA

CITY           SKY/WX    TMP DP  RH WIND       PRES   REMARKS
EDMONTON       LGT SNOW  21  19  93 NE2       30.05R
CALGARY        PTCLDY    14  10  85 N6        29.95S WCI   5
LETHBRIDGE     CLEAR     16  12  86 S6        29.98S WCI   7
MEDICINE HAT   FLURRIES  23  19  86 E6        30.04S WCI  16
WATERTON GATE    N/A     12   9  85 SW7         N/A  WCI   2
MILK RIVER       N/A     19  18  93 SW7         N/A  WCI  10
$$

REGIONAL REPORTS...SASKATCHEWAN

CITY           SKY/WX    TMP DP  RH WIND       PRES   REMARKS
SWIFT CURRENT  MOCLDY    21  16  79 S7        30.04F WCI  13
REGINA         MOCLDY    21  19  93 SW7       30.11F WCI  13
SASKATOON      CLOUDY    18  14  86 E6        30.12F WCI   9
CYPRESS HILLS    N/A     18  16  93 S5          N/A
VAL MARIE        N/A     23  19  86 SE7         N/A  WCI  15
ROCKGLEN         N/A     19  14  79 E1          N/A
ASSINIBOIA       N/A     19  18  93 SW1         N/A
$$




USA.gov is the U.S. government's official web portal to all federal, state and local government web resources and services.